Regional Weather Roundup
Issued by NWS

Home | Current Version | Previous Version | Graphics & Text | Print | Product List | Glossary On
Versions: 1 2 3 4 5 6 7 8 9 10 11 12 13 14 15 16 17 18 19 20 21 22 23 24 25 26 27 28 29 30 31 32 33 34 35 36 37 38 39 40 41 42 43 44 45 46 47 48 49 50
000
ASUS43 KIND 270009
RWRIN

WEATHER ROUNDUP FOR INDIANA
NATIONAL WEATHER SERVICE INDIANAPOLIS IN
800 PM EDT SUN APR 26 2015

NOTE: "FAIR" INDICATES FEW OR NO CLOUDS BELOW 12,000 FEET WITH NO
SIGNIFICANT WEATHER AND/OR OBSTRUCTIONS TO VISIBILITY.

* - STATION DOES NOT REPORT WEATHER SUCH AS PRECIPITATION OR FOG.

+ - STATION NOT QUALITY CONTROLLED BY THE NATIONAL WEATHER SERVICE.
    USE DATA WITH CAUTION...ESPECIALLY DEWPOINT AND RELATIVE
    HUMIDITY OBSERVATIONS.

INZ001>003-010>013-019-020-270100-
NORTHWEST INDIANA

CITY           SKY/WX    TMP DP  RH WIND       PRES   REMARKS
GARY /AIRPORT/ CLEAR     46  27  46 N20       30.01S
KNOX *+        CLEAR     46   7  19 N18       29.96R
LA PORTE +     CLEAR     47  29  49 N13G21    29.98S
6HR MIN TEMP:  47; 6HR MAX TEMP:  54;

MICHIGAN CITY+ CLEAR     43  25  49 N10       29.99F
MONTICELLO +   CLEAR     50  33  50 N15G21    29.94S
6HR MIN TEMP:  50; 6HR MAX TEMP:  58;

VALPARAISO     CLEAR     45  26  47 N10G23    29.99S
6HR MIN TEMP:  45; 6HR MAX TEMP:  52;


$$

LMZ046-743>745-270100-
SOUTHERN LAKE MICHIGAN

STATION/POSITION TIME  TEMP    WIND        PRES    WAVE
                       AIR SEA DIR/SP/G            HT
                 (UTC) (F)     (DEG/KT/KT) (MB)    (FT)
BURNS HARBOR     0000   44      20/ 15/ 18 1016.3S
MICHIGAN CITY    0000   42      20/ 13/ 15   N/A
5NW MICH CITY    0000   42 45   20/ 14/ 19   N/A     4

$$

INZ004-005-014>016-021>024-270100-
NORTH CENTRAL INDIANA

CITY           SKY/WX    TMP DP  RH WIND       PRES   REMARKS
GOSHEN         CLEAR     52  31  44 NW12      29.92R
6HR MIN TEMP:  52; 6HR MAX TEMP:  58;

LOGANSPORT +   CLEAR     52  30  43 N13G20    29.94R
PERU/GRISSOM   PTCLDY    53  35  49 N13       29.91R
6HR MIN TEMP:  53; 6HR MAX TEMP:  58;

ROCHESTER +    CLEAR     54  32  43 N15G21    29.93S
SOUTH BEND     CLEAR     49  24  37 N14       29.96S
6HR MIN TEMP:  49; 6HR MAX TEMP:  57;

WARSAW +       CLEAR     52  32  46 NW10G18   29.92R

$$

INZ006>009-017-018-025>027-270100-
NORTHEAST INDIANA

CITY           SKY/WX    TMP DP  RH WIND       PRES   REMARKS
ANGOLA *+      CLEAR     55  41  58 E8        29.90S
AUBURN +       PTCLDY    54  28  37 N7        29.90S
FORT WAYNE     PTCLDY    53  32  44 N8        29.90S
6HR MIN TEMP:  53; 6HR MAX TEMP:  59;

HUNTINGTON +   PTCLDY    54  31  40 N5        29.90S
6HR MIN TEMP:  53; 6HR MAX TEMP:  58;


$$

INZ028-029-035-036-043>045-051>053-270100-
WEST CENTRAL INDIANA

CITY           SKY/WX    TMP DP  RH WIND       PRES   REMARKS
CRAWFORDSVL +  CLEAR     50  26  39 N13G18    29.94R
6HR MIN TEMP:  50; 6HR MAX TEMP:  56;

GREENCASTLE +  CLOUDY    52  32  46 N7        29.93R
LAFAYETTE      CLEAR     51  31  46 N14G23    29.95R
6HR MIN TEMP:  51; 6HR MAX TEMP:  57;

TERRE HAUTE    MOCLDY    55  37  50 N7        29.93R
6HR MIN TEMP:  55; 6HR MAX TEMP:  60;


$$

INZ030>032-037>040-046>048-054>057-064-065-270100-
CENTRAL INDIANA

CITY           SKY/WX    TMP DP  RH WIND       PRES   REMARKS
CP ATTERBURY + PTCLDY    54  34  47 N8        29.91S
COLUMBUS       MOCLDY    54  32  43 N9        29.90S
FRANKFORT +    CLEAR     53  35  51 NW16      29.94S
6HR MIN TEMP:  52; 6HR MAX TEMP:  57;

GREENWOOD *+   PTCLDY    54  30  40 N6        29.92R
INDIANAPOLIS   PTCLDY    54  32  43 N8        29.90R
6HR MIN TEMP:  54; 6HR MAX TEMP:  58;

-EAGLE CREEK   CLOUDY    55  32  41 N7        29.91R
6HR MIN TEMP:  53; 6HR MAX TEMP:  57;

KOKOMO *+      MOCLDY    55  36  47 N16       29.91S
6HR MIN TEMP:  54; 6HR MAX TEMP:  57;

MARION +       PTCLDY    54  31  41 N8        29.91S
MT COMFORT *+  PTCLDY    52  25  35 N8        29.91S
SHELBYVILLE    MOCLDY    56  37  49 N10       29.90R
6HR MIN TEMP:  56; 6HR MAX TEMP:  60;

ZIONSVILLE +   MOCLDY    55  33  42 N10       29.92R
6HR MIN TEMP:  53; 6HR MAX TEMP:  57;


$$

INZ033-034-041-042-049-050-058-059-270100-
EAST CENTRAL INDIANA

CITY           SKY/WX    TMP DP  RH WIND       PRES   REMARKS
MUNCIE         PTCLDY    53  35  50 N9        29.90R
6HR MIN TEMP:  52; 6HR MAX TEMP:  58;


$$

INZ060-061-067>069-081>083-085>088-270100-
SOUTHWEST INDIANA

CITY           SKY/WX    TMP DP  RH WIND       PRES   REMARKS
EVANSVILLE     CLEAR     60  36  40 N8        29.89R
6HR MIN TEMP:  60; 6HR MAX TEMP:  64;

HUNTINGBURG *+ CLEAR     57  36  44 N12G21    29.88R
6HR MIN TEMP:  57; 6HR MAX TEMP:  63;

WASHINGTON +   CLEAR     57  32  38 N13       29.90R
6HR MIN TEMP:  57; 6HR MAX TEMP:  61;


$$

INZ062-063-066-070>080-084-089>092-270100-
SOUTH CENTRAL AND SOUTHEAST INDIANA

CITY           SKY/WX    TMP DP  RH WIND       PRES   REMARKS
BEDFORD +      CLEAR     57  32  38 N6        29.90R
BLOOMINGTON    PTCLDY    53  37  54 N9        29.91R
6HR MIN TEMP:  53; 6HR MAX TEMP:  61;

MADISON *+     PTCLDY    55  32  41 NW7       29.90R
NORTH VERNON + MOCLDY    54  36  50 N8        29.90R
SEYMOUR +      PTCLDY    57  36  44 N10       29.89R

$$




USA.gov is the U.S. government's official web portal to all federal, state and local government web resources and services.